Weather History for West Palm Beach, FL

Change the Weather History Date:

Saturday, November 22, 2014

  Actual Average Record
Temperature  
Mean Temperature 77 °F 72 °F  
Max Temperature 81 °F 79 °F 89 °F (1920)
Min Temperature 73 °F 64 °F 40 °F (2006)
Degree Days  
Heating Degree Days 0 1  
Month to date heating degree days 10 1  
Since 1 July heating degree days 10 2  
Cooling Degree Days 12 7  
Month to date cooling degree days 143 190  
Year to date cooling degree days 4079 3811  
Growing Degree Days 26 (Base 50)    
Moisture  
Dew Point 68 °F    
Average Humidity 73    
Maximum Humidity 79    
Minimum Humidity 67    
Precipitation  
Precipitation 0.09 in 0.14 in 7.41 in (1984)
Month to date precipitation 1.77 3.70  
Year to date precipitation 59.36 57.90  
Snow  
Snow 0.00 in - - ()
Month to date snowfall 0.0  
Since 1 July snowfall 0.0  
Since 1 September snowfall 0.0  
Snow Depth 0.00 in    
Sea Level Pressure  
Sea Level Pressure 30.14 in    
Wind  
Wind Speed 23 mph (East)    
Max Wind Speed 31 mph    
Max Gust Speed 38 mph    
Visibility 10 miles    
Events Rain    
T = Trace of Precipitation, MM = Missing Value Source: NWS Daily Summary

Daily Weather History Graph

Daily Weather History Graph

Search for Another Location

Airport:

Trip Planner

Search our weather history database for the weather conditions in past years. The results will help you decide how hot, cold, wet, or windy it might be!

Date:

Astronomy

Nov. 22, 2014 Rise Set
Actual Time 6:45 AM EST 5:27 PM EST
Civil Twilight 6:20 AM EST 5:52 PM EST
Nautical Twilight 5:51 AM EST 6:20 PM EST
Astronomical Twilight 5:24 AM EST 6:48 PM EST
Moon 6:43 AM EST (11/22) 5:54 PM EST (11/22)
Length of Visible Light 11h 32m
Length of Day
10h 42m
New Moon, 0% of the Moon is Illuminated
Nov 22
New Moon
Nov 29
First Quarter
Dec 6
Full
Dec 14
Last Quarter
Dec 21
New

Hourly Weather History & Observations

Time (EST) Temp. Heat Index Dew Point Humidity Pressure Visibility Wind Dir Wind Speed Gust Speed Precip Events Conditions
12:53 AM 75.0 °F - 66.0 °F 73% 30.17 in 10.0 mi East 23.0 mph 28.8 mph 0.00 in   Overcast
1:07 AM 73.9 °F - 66.0 °F 76% 30.18 in 10.0 mi East 19.6 mph 25.3 mph 0.00 in Rain Light Rain
1:53 AM 73.9 °F - 66.9 °F 79% 30.16 in 10.0 mi East 23.0 mph 28.8 mph 0.01 in   Overcast
2:53 AM 75.0 °F - 66.0 °F 73% 30.16 in 10.0 mi East 23.0 mph 32.2 mph 0.00 in   Overcast
3:53 AM 75.0 °F - 66.0 °F 73% 30.16 in 10.0 mi East 17.3 mph 27.6 mph N/A   Mostly Cloudy
4:53 AM 75.9 °F - 66.0 °F 71% 30.16 in 10.0 mi East 19.6 mph 28.8 mph N/A   Mostly Cloudy
5:53 AM 75.9 °F - 66.0 °F 71% 30.17 in 10.0 mi East 18.4 mph 27.6 mph N/A   Mostly Cloudy
6:53 AM 75.9 °F - 66.9 °F 74% 30.18 in 10.0 mi East 21.9 mph 26.5 mph N/A   Mostly Cloudy
7:53 AM 77.0 °F - 66.0 °F 69% 30.18 in 10.0 mi East 23.0 mph 32.2 mph N/A   Mostly Cloudy
8:05 AM 77.0 °F - 66.9 °F 71% 30.19 in 10.0 mi East 24.2 mph 32.2 mph N/A   Overcast
8:32 AM 78.1 °F - 66.9 °F 68% 30.19 in 10.0 mi East 25.3 mph 32.2 mph N/A   Overcast
8:53 AM 78.1 °F - 66.9 °F 68% 30.20 in 10.0 mi East 23.0 mph 33.4 mph N/A   Mostly Cloudy
9:53 AM 78.1 °F - 66.9 °F 68% 30.21 in 10.0 mi East 20.7 mph 33.4 mph N/A   Overcast
10:53 AM 78.1 °F - 66.9 °F 68% 30.20 in 10.0 mi East 24.2 mph 31.1 mph N/A   Overcast
11:53 AM 78.1 °F - 66.9 °F 68% 30.19 in 10.0 mi East 24.2 mph 29.9 mph N/A   Overcast
12:53 PM 79.0 °F - 66.9 °F 66% 30.16 in 10.0 mi East 23.0 mph 32.2 mph N/A   Overcast
1:53 PM 80.1 °F 82.9 °F 69.1 °F 69% 30.13 in 10.0 mi East 20.7 mph 31.1 mph N/A   Mostly Cloudy
2:53 PM 79.0 °F - 68.0 °F 69% 30.12 in 10.0 mi East 19.6 mph - N/A   Overcast
3:53 PM 79.0 °F - 68.0 °F 69% 30.11 in 10.0 mi ENE 21.9 mph 26.5 mph N/A   Overcast
4:53 PM 78.1 °F - 69.1 °F 74% 30.09 in 10.0 mi East 26.5 mph 32.2 mph N/A   Overcast
5:11 PM 77.0 °F - 69.1 °F 76% 30.09 in 10.0 mi East 21.9 mph 31.1 mph N/A   Overcast
5:53 PM 77.0 °F - 69.1 °F 76% 30.09 in 10.0 mi East 21.9 mph 33.4 mph N/A   Overcast
6:53 PM 77.0 °F - 69.1 °F 76% 30.09 in 10.0 mi East 24.2 mph 33.4 mph N/A   Overcast
7:53 PM 77.0 °F - 69.1 °F 76% 30.09 in 10.0 mi East 26.5 mph 35.7 mph N/A   Overcast
8:53 PM 77.0 °F - 69.1 °F 76% 30.10 in 10.0 mi East 28.8 mph 36.8 mph N/A   Overcast
9:53 PM 77.0 °F - 70.0 °F 79% 30.09 in 10.0 mi East 23.0 mph 32.2 mph N/A   Overcast
10:53 PM 75.9 °F - 71.1 °F 85% 30.09 in 10.0 mi East 23.0 mph 29.9 mph 0.00 in Rain Light Rain
11:53 PM 75.0 °F - 72.0 °F 90% 30.07 in 10.0 mi East 24.2 mph 35.7 mph 0.08 in Rain Light Rain